TimeCDT,TemperatureF,Dew PointF,Humidity,Sea Level PressureIn,VisibilityMPH,Wind Direction,Wind SpeedMPH,Gust SpeedMPH,PrecipitationIn,Events,Conditions,WindDirDegrees,DateUTC
12:15 AM,40.5,36.5,86,30.08,10.0,West,11.5,-,N/A,,Clear,280,2013-03-31 05:15:00
12:35 AM,40.1,35.6,84,30.08,10.0,West,10.4,-,N/A,,Clear,280,2013-03-31 05:35:00
12:55 AM,38.8,34.7,85,30.08,10.0,West,10.4,-,N/A,,Clear,280,2013-03-31 05:55:00
1:15 AM,38.8,34.5,84,30.09,10.0,WNW,9.2,-,N/A,,Clear,290,2013-03-31 06:15:00
1:35 AM,38.7,34.0,83,30.09,10.0,WNW,9.2,-,N/A,,Clear,290,2013-03-31 06:35:00
1:55 AM,37.4,33.3,85,30.09,10.0,WNW,9.2,-,N/A,,Clear,290,2013-03-31 06:55:00
2:15 AM,37.6,33.6,86,30.10,10.0,WNW,9.2,-,N/A,,Clear,300,2013-03-31 07:15:00
2:35 AM,39.2,34.0,82,30.10,10.0,NW,10.4,-,N/A,,Clear,310,2013-03-31 07:35:00
2:55 AM,39.6,34.0,80,30.10,10.0,NW,11.5,-,N/A,,Clear,320,2013-03-31 07:55:00
3:15 AM,39.2,33.8,81,30.09,10.0,NW,9.2,-,N/A,,Clear,310,2013-03-31 08:15:00
3:35 AM,38.3,33.8,84,30.09,10.0,NW,10.4,-,N/A,,Clear,320,2013-03-31 08:35:00
3:55 AM,37.9,33.3,83,30.08,10.0,NW,9.2,-,N/A,,Clear,310,2013-03-31 08:55:00
4:15 AM,37.4,32.9,84,30.08,10.0,NW,9.2,-,N/A,,Clear,310,2013-03-31 09:15:00
4:35 AM,36.1,32.2,86,30.08,10.0,WNW,5.8,-,N/A,,Clear,300,2013-03-31 09:35:00
4:55 AM,34.9,32.0,89,30.07,10.0,West,3.5,-,N/A,,Clear,270,2013-03-31 09:55:00
5:15 AM,34.5,32.0,90,30.07,10.0,West,6.9,-,N/A,,Clear,260,2013-03-31 10:15:00
5:35 AM,34.3,32.0,91,30.07,10.0,West,5.8,-,N/A,,Clear,280,2013-03-31 10:35:00
5:55 AM,34.2,31.8,91,30.08,10.0,West,5.8,-,N/A,,Clear,280,2013-03-31 10:55:00
6:15 AM,34.0,31.8,92,30.07,10.0,WNW,8.1,-,N/A,,Clear,290,2013-03-31 11:15:00
6:35 AM,33.4,31.1,91,30.07,10.0,WNW,6.9,-,N/A,,Clear,290,2013-03-31 11:35:00
6:55 AM,33.3,31.1,92,30.05,10.0,West,6.9,-,N/A,,Clear,280,2013-03-31 11:55:00
7:15 AM,33.4,31.1,91,30.05,10.0,West,5.8,-,N/A,,Clear,270,2013-03-31 12:15:00
7:35 AM,32.4,30.2,92,30.05,10.0,West,6.9,-,N/A,,Clear,270,2013-03-31 12:35:00
7:55 AM,32.5,30.4,92,30.05,10.0,Calm,Calm,-,N/A,,Clear,0,2013-03-31 12:55:00
8:15 AM,34.2,31.1,89,30.05,10.0,WSW,3.5,-,N/A,,Clear,250,2013-03-31 13:15:00
8:35 AM,35.4,31.5,85,30.05,10.0,West,3.5,-,N/A,,Clear,270,2013-03-31 13:35:00
8:55 AM,37.4,32.0,81,30.04,10.0,West,6.9,-,N/A,,Clear,260,2013-03-31 13:55:00
9:15 AM,39.4,32.9,78,30.04,10.0,West,6.9,-,N/A,,Clear,270,2013-03-31 14:15:00
9:55 AM,44.2,32.4,63,30.04,10.0,WSW,5.8,-,N/A,,Clear,250,2013-03-31 14:55:00
10:15 AM,46.0,32.7,60,30.03,10.0,West,4.6,-,N/A,,Clear,260,2013-03-31 15:15:00
10:35 AM,48.0,29.8,49,30.02,10.0,West,6.9,-,N/A,,Clear,270,2013-03-31 15:35:00
10:55 AM,50.0,29.5,45,30.01,10.0,WSW,4.6,-,N/A,,Clear,250,2013-03-31 15:55:00
11:15 AM,52.5,26.2,36,30.00,10.0,West,9.2,-,N/A,,Clear,260,2013-03-31 16:15:00
11:35 AM,54.5,28.4,37,30.00,10.0,West,10.4,-,N/A,,Clear,280,2013-03-31 16:35:00
11:55 AM,55.6,28.9,36,29.99,10.0,West,11.5,-,N/A,,Clear,260,2013-03-31 16:55:00
12:15 PM,56.7,28.0,33,29.98,10.0,West,12.7,-,N/A,,Clear,270,2013-03-31 17:15:00
12:35 PM,57.2,29.5,35,29.98,10.0,SW,13.8,17.3,N/A,,Clear,230,2013-03-31 17:35:00
12:55 PM,58.6,30.7,35,29.97,10.0,WSW,13.8,19.6,N/A,,Clear,250,2013-03-31 17:55:00
1:15 PM,59.7,31.6,35,29.96,10.0,West,12.7,19.6,N/A,,Clear,270,2013-03-31 18:15:00
1:35 PM,61.2,30.4,31,29.95,10.0,WSW,16.1,19.6,N/A,,Clear,240,2013-03-31 18:35:00
1:55 PM,62.2,30.6,30,29.94,10.0,SW,10.4,21.9,N/A,,Scattered Clouds,230,2013-03-31 18:55:00
2:15 PM,61.5,30.6,31,29.93,10.0,West,13.8,23.0,N/A,,Mostly Cloudy,270,2013-03-31 19:15:00
2:35 PM,63.3,29.7,28,29.91,10.0,West,16.1,20.7,N/A,,Overcast,270,2013-03-31 19:35:00
2:55 PM,64.2,28.0,26,29.90,10.0,West,10.4,23.0,N/A,,Mostly Cloudy,280,2013-03-31 19:55:00
3:15 PM,65.5,25.7,22,29.89,10.0,West,18.4,25.3,N/A,,Overcast,280,2013-03-31 20:15:00
3:35 PM,64.2,25.2,23,29.88,10.0,WNW,15.0,23.0,N/A,,Overcast,290,2013-03-31 20:35:00
3:55 PM,67.5,23.2,19,29.87,10.0,WNW,15.0,25.3,N/A,,Mostly Cloudy,300,2013-03-31 20:55:00
4:15 PM,66.9,22.3,18,29.87,10.0,WNW,21.9,27.6,N/A,,Overcast,300,2013-03-31 21:15:00
4:35 PM,65.5,24.6,21,29.87,10.0,NW,16.1,25.3,N/A,,Overcast,320,2013-03-31 21:35:00
4:55 PM,64.0,25.3,23,29.87,10.0,NNW,15.0,23.0,N/A,,Mostly Cloudy,340,2013-03-31 21:55:00
5:15 PM,63.1,26.6,25,29.87,10.0,North,19.6,25.3,N/A,,Overcast,10,2013-03-31 22:15:00
5:35 PM,59.0,30.0,33,29.89,10.0,NE,17.3,25.3,N/A,,Mostly Cloudy,40,2013-03-31 22:35:00
5:55 PM,57.9,29.7,34,29.90,10.0,NE,23.0,28.8,N/A,,Scattered Clouds,40,2013-03-31 22:55:00
6:15 PM,54.9,28.8,37,29.93,10.0,NE,23.0,31.1,N/A,,Clear,40,2013-03-31 23:15:00
6:35 PM,51.1,26.8,39,29.96,10.0,NE,21.9,28.8,N/A,,Scattered Clouds,40,2013-03-31 23:35:00
6:55 PM,50.0,25.3,38,29.98,10.0,NE,18.4,24.2,N/A,,Mostly Cloudy,40,2013-03-31 23:55:00
7:15 PM,47.3,22.3,37,29.99,10.0,NE,17.3,29.9,N/A,,Scattered Clouds,50,2013-04-01 00:15:00
7:35 PM,46.4,20.5,36,30.01,10.0,NE,18.4,24.2,N/A,,Mostly Cloudy,40,2013-04-01 00:35:00
8:15 PM,42.6,20.5,41,30.05,10.0,NE,17.3,27.6,N/A,,Overcast,40,2013-04-01 01:15:00
8:35 PM,40.6,21.2,46,30.07,10.0,NE,16.1,-,N/A,,Overcast,40,2013-04-01 01:35:00
9:15 PM,38.8,22.6,52,30.10,10.0,NNE,16.1,20.7,N/A,,Overcast,30,2013-04-01 02:15:00
9:35 PM,37.6,24.4,59,30.11,10.0,NE,11.5,19.6,N/A,,Overcast,40,2013-04-01 02:35:00
9:55 PM,36.5,24.6,62,30.12,10.0,NE,11.5,-,N/A,,Scattered Clouds,40,2013-04-01 02:55:00
10:15 PM,35.6,26.2,69,30.13,10.0,NNE,16.1,20.7,N/A,,Clear,30,2013-04-01 03:15:00
10:35 PM,34.2,26.6,74,30.14,10.0,NNE,10.4,16.1,N/A,,Clear,30,2013-04-01 03:35:00
11:15 PM,32.0,26.2,79,30.16,10.0,NNE,11.5,-,N/A,,Clear,30,2013-04-01 04:15:00
11:35 PM,32.0,27.0,82,30.17,10.0,NNE,6.9,-,N/A,,Mostly Cloudy,20,2013-04-01 04:35:00
11:55 PM,32.2,27.0,81,30.17,10.0,NNE,10.4,-,N/A,,Overcast,20,2013-04-01 04:55:00